User: anonymous   Login
Location: Unspecified
(0.0000°N, 0.0000°E)
Time: 23:00:25
(UTC+01:00)
Language:

CZ-4B DEB - Orbit

View from above orbital plane
View from above orbital plane
View from above satellite
View from above satellite

Ground track
Ground track

The orbit data is extracted from the following two-line orbital elements,

1 33411U 08053D   17081.54286328 +.00042264 +00000-0 +59700-3 0  9995
2 33411 097.4193 126.5284 0002916 240.8302 119.2661 15.56445092462663
Epoch (UTC): 22 March 2017 13:01:43
Eccentricity: 0.0002916
inclination: 97.4193°
perigee height: 396 km
apogee height: 400 km
right ascension of ascending node: 126.5284°
argument of perigee: 240.8302°
revolutions per day: 15.56445092
mean anomaly at epoch: 119.2661°
orbit number at epoch: 46266

The dashed part of the orbit path shows where the satellite is in the earth's shadow,  

DLR